FW3682 Weather Reports


time (UTC)temp
F
wind
direction
speed
knots
gust
knots
rain 1hr
in
rain 24hr
in
rain mn
in
humidity
%
barometer
mb
20260503184528 64 116 0.9 10.4 0.00 0.00 0.00 36 1018.9
20260503183030 63 281 1.7 8.7 0.00 0.00 0.00 38 1019.2
20260503181544 62 225 3.5 6.1 0.00 0.00 0.00 41 1019.3
20260503180029 62 80 0.9 9.6 0.00 0.00 0.00 40 1019.6
20260503174532 62 295 1.7 8.7 0.00 0.00 0.00 41 1019.7
20260503173030 61 201 2.6 8.7 0.00 0.00 0.00 42 1019.9
20260503171526 60 157 2.6 7.0 0.00 0.00 0.00 43 1020.2
20260503081536 43 0 0.0 0.9 0.00 0.00 0.00 70 1018.4
20260503071529 44 0 0.0 9.6 0.00 0.00 0.00 67 1017.9
20260503054544 45 0 0.0 0.0 0.00 0.00 0.00 64 1017.6
20260503053031 45 0 0.0 0.0 0.00 0.00 0.00 64 1017.6
20260503051528 46 0 0.0 0.0 0.00 0.00 0.00 64 1017.6
20260503050033 46 0 0.0 0.0 0.00 0.00 0.00 62 1017.5
20260503044538 47 213 0.0 1.7 0.00 0.00 0.00 61 1017.4
20260503043036 47 0 0.0 0.0 0.00 0.00 0.00 61 1017.3
20260503041530 47 0 0.0 2.6 0.00 0.00 0.00 60 1017.2
20260503040032 47 213 0.0 2.6 0.00 0.00 0.00 59 1017.0
20260503034528 47 0 0.0 2.6 0.00 0.00 0.00 59 1016.7
20260503033031 48 213 0.0 2.6 0.00 0.00 0.00 60 1016.7
20260503031531 48 213 0.9 2.6 0.00 0.00 0.00 59 1016.7
20260503030034 49 213 0.9 2.6 0.00 0.00 0.00 57 1016.6
20260503024533 49 0 0.9 3.5 0.00 0.00 0.00 55 1016.6
20260503023028 50 0 0.0 3.5 0.00 0.00 0.00 56 1016.3
20260503021529 50 195 1.7 7.0 0.00 0.00 0.00 54 1016.2
20260503020032 51 198 1.7 5.2 0.00 0.00 0.00 53 1016.1
20260503014530 51 216 1.7 6.1 0.00 0.00 0.00 53 1015.9
20260503013037 52 0 0.0 2.6 0.00 0.00 0.00 53 1015.6
20260503011528 52 259 0.9 2.6 0.00 0.00 0.00 50 1015.4
20260503010028 53 0 1.7 5.2 0.00 0.00 0.00 50 1015.1
20260503004535 54 277 1.7 7.0 0.00 0.00 0.00 48 1014.9
20260503003042 55 213 0.0 7.0 0.00 0.00 0.00 48 1014.6
20260503001540 56 0 1.7 8.7 0.00 0.00 0.00 45 1014.5
20260503000034 56 155 1.7 11.3 0.00 0.00 0.00 44 1014.3
20260502234538 57 251 3.5 10.4 0.00 0.00 0.00 43 1014.0
20260502233038 57 331 2.6 11.3 0.00 0.00 0.00 43 1013.8
20260502231529 57 291 5.2 10.4 0.00 0.00 0.00 42 1013.5
20260502230034 58 178 0.9 11.3 0.00 0.00 0.00 43 1013.3
20260502224528 59 248 2.6 8.7 0.00 0.00 0.00 42 1013.3
20260502223039 59 281 2.6 10.4 0.00 0.00 0.00 40 1013.2
20260502221529 60 220 2.6 7.8 0.00 0.00 0.00 39 1013.1
20260502220030 61 167 1.7 9.6 0.00 0.00 0.00 40 1012.9
20260502214530 61 216 3.5 13.9 0.00 0.00 0.00 39 1012.6
20260502213028 63 225 1.7 7.0 0.00 0.00 0.00 36 1012.5
20260502211532 64 272 3.5 10.4 0.00 0.00 0.00 36 1012.3
20260502210034 63 259 2.6 8.7 0.00 0.00 0.00 35 1012.3
20260502204527 63 288 2.6 9.6 0.00 0.00 0.00 36 1012.4
20260502203027 63 277 1.7 7.0 0.00 0.00 0.00 39 1012.4
20260502201530 62 215 0.9 4.3 0.00 0.00 0.00 42 1012.4
20260502200030 62 196 0.9 4.3 0.00 0.00 0.00 42 1012.6
20260502194532 62 0 0.9 3.5 0.00 0.00 0.00 50 1012.7
20260502193033 61 0 0.9 5.2 0.00 0.00 0.00 52 1012.9
20260502191530 62 205 1.7 6.1 0.00 0.00 0.00 50 1012.9
20260502190041 62 17 0.9 3.5 0.00 0.00 0.00 51 1012.9